| time (UTC) | temp F | wind direction | speed knots | gust knots | rain 1hr in | rain 24hr in | rain mn in | humidity % | barometer mb |
| 20260503201426 | 61 | 257 | 3.5 | 8.7 | 0.00 | 0.00 | 0.00 | 54 | 1015.3 |
| 20260503200926 | 61 | 202 | 4.3 | 9.6 | 0.00 | 0.00 | 0.00 | 52 | 1015.1 |
| 20260503200426 | 61 | 204 | 4.3 | 9.6 | 0.00 | 0.00 | 0.00 | 52 | 1015.5 |
| 20260503195926 | 62 | 144 | 4.3 | 10.4 | 0.00 | 0.00 | 0.00 | 52 | 1015.6 |
| 20260503195426 | 62 | 275 | 3.5 | 10.4 | 0.00 | 0.00 | 0.00 | 52 | 1015.7 |
| 20260503194927 | 62 | 256 | 2.6 | 10.4 | 0.00 | 0.00 | 0.00 | 54 | 1015.9 |
| 20260503194425 | 62 | 195 | 3.5 | 7.8 | 0.00 | 0.00 | 0.00 | 53 | 1015.8 |
| 20260503193925 | 62 | 178 | 3.5 | 14.8 | 0.00 | 0.00 | 0.00 | 50 | 1015.6 |
| 20260503193424 | 63 | 186 | 4.3 | 14.8 | 0.00 | 0.00 | 0.00 | 51 | 1015.6 |
| 20260503192924 | 63 | 143 | 5.2 | 12.2 | 0.00 | 0.00 | 0.00 | 51 | 1015.6 |
| 20260503192424 | 63 | 214 | 5.2 | 11.3 | 0.00 | 0.00 | 0.00 | 50 | 1015.7 |
| 20260503191929 | 63 | 178 | 4.3 | 12.2 | 0.00 | 0.00 | 0.00 | 52 | 1015.6 |
| 20260503191924 | 64 | 155 | 5.2 | 12.2 | 0.00 | 0.00 | 0.00 | 50 | 1015.7 |
| 20260503190924 | 64 | 170 | 3.5 | 10.4 | 0.00 | 0.00 | 0.00 | 49 | 1015.6 |
| 20260503190424 | 64 | 138 | 4.3 | 12.2 | 0.00 | 0.00 | 0.00 | 51 | 1015.6 |
| 20260503185928 | 63 | 189 | 3.5 | 9.6 | 0.00 | 0.00 | 0.00 | 53 | 1016.0 |
| 20260503185924 | 64 | 302 | 3.5 | 12.2 | 0.00 | 0.00 | 0.00 | 51 | 1015.9 |
| 20260503184922 | 63 | 200 | 3.5 | 9.6 | 0.00 | 0.00 | 0.00 | 53 | 1016.0 |
| 20260503184421 | 63 | 263 | 4.3 | 9.6 | 0.00 | 0.00 | 0.00 | 51 | 1016.2 |
| 20260503183920 | 63 | 85 | 4.3 | 13.0 | 0.00 | 0.00 | 0.00 | 51 | 1016.2 |
| 20260503183420 | 63 | 178 | 4.3 | 13.0 | 0.00 | 0.00 | 0.00 | 52 | 1016.2 |
| 20260503182924 | 62 | 168 | 3.5 | 12.2 | 0.00 | 0.00 | 0.00 | 57 | 1016.6 |
| 20260503182920 | 63 | 240 | 3.5 | 10.4 | 0.00 | 0.00 | 0.00 | 52 | 1016.4 |
| 20260503181918 | 62 | 138 | 4.3 | 12.2 | 0.00 | 0.00 | 0.00 | 53 | 1016.7 |
| 20260503181418 | 62 | 134 | 4.3 | 11.3 | 0.00 | 0.00 | 0.00 | 52 | 1016.6 |
| 20260503180918 | 63 | 118 | 4.3 | 10.4 | 0.00 | 0.00 | 0.00 | 52 | 1016.8 |
| 20260503180421 | 62 | 226 | 3.5 | 11.3 | 0.00 | 0.00 | 0.00 | 53 | 1017.1 |
| 20260503180415 | 63 | 221 | 4.3 | 10.4 | 0.00 | 0.00 | 0.00 | 51 | 1016.9 |
| 20260503175916 | 63 | 156 | 4.3 | 11.3 | 0.00 | 0.00 | 0.00 | 52 | 1017.0 |
| 20260503174915 | 62 | 223 | 4.3 | 9.6 | 0.00 | 0.00 | 0.00 | 56 | 1017.5 |
| 20260503174416 | 62 | 195 | 4.3 | 9.6 | 0.00 | 0.00 | 0.00 | 52 | 1017.5 |
| 20260503173915 | 62 | 198 | 3.5 | 9.6 | 0.00 | 0.00 | 0.00 | 52 | 1017.7 |
| 20260503173413 | 62 | 212 | 4.3 | 8.7 | 0.00 | 0.00 | 0.00 | 55 | 1018.0 |
| 20260503172913 | 63 | 198 | 4.3 | 7.8 | 0.00 | 0.00 | 0.00 | 52 | 1018.1 |
| 20260503172413 | 62 | 235 | 3.5 | 9.6 | 0.00 | 0.00 | 0.00 | 54 | 1018.0 |
| 20260503171913 | 62 | 244 | 3.5 | 9.6 | 0.00 | 0.00 | 0.00 | 52 | 1017.9 |
| 20260503171413 | 62 | 167 | 4.3 | 9.6 | 0.00 | 0.00 | 0.00 | 57 | 1018.1 |
| 20260503170914 | 62 | 195 | 4.3 | 9.6 | 0.00 | 0.00 | 0.00 | 54 | 1018.2 |
| 20260503170412 | 62 | 151 | 3.5 | 9.6 | 0.00 | 0.00 | 0.00 | 55 | 1018.3 |
| 20260503150909 | 58 | 219 | 3.5 | 14.8 | 0.00 | 0.00 | 0.00 | 60 | 1019.8 |
| 20260503131403 | 45 | 159 | 1.7 | 5.2 | 0.00 | 0.00 | 0.00 | 49 | 1019.9 |
| 20260503130903 | 44 | 190 | 1.7 | 4.3 | 0.00 | 0.00 | 0.00 | 45 | 1020.0 |
| 20260503130403 | 44 | 181 | 1.7 | 6.1 | 0.00 | 0.00 | 0.00 | 37 | 1020.1 |
| 20260503110357 | 36 | 282 | 0.0 | 1.7 | 0.00 | 0.00 | 0.00 | 1 | 1019.4 |
| 20260503090353 | 36 | 304 | 0.0 | 1.7 | 0.00 | 0.00 | 0.00 | 1 | 1019.4 |
| 20260503081351 | 36 | 0 | 0.0 | 1.7 | 0.00 | 0.00 | 0.00 | 1 | 1019.4 |
| 20260503080850 | 36 | 0 | 0.0 | 1.7 | 0.00 | 0.00 | 0.00 | 1 | 1019.3 |
| 20260503080350 | 36 | 0 | 0.0 | 1.7 | 0.00 | 0.00 | 0.00 | 1 | 1019.4 |
| 20260503072850 | 36 | 5 | 0.0 | 0.0 | 0.00 | 0.00 | 0.00 | 2 | 1019.3 |
| 20260503072348 | 36 | 5 | 0.0 | 0.0 | 0.00 | 0.00 | 0.00 | 3 | 1019.4 |
| 20260503071848 | 36 | 5 | 0.0 | 0.0 | 0.00 | 0.00 | 0.00 | 4 | 1019.3 |
| 20260503071348 | 36 | 5 | 0.0 | 0.0 | 0.00 | 0.00 | 0.00 | 5 | 1019.4 |
| 20260503071344 | 36 | 5 | 0.0 | 0.0 | 0.00 | 0.00 | 0.00 | 5 | 1019.4 |
| 20260503070342 | 37 | 5 | 0.0 | 0.0 | 0.00 | 0.00 | 0.00 | 6 | 1019.4 |
| 20260503060340 | 37 | 5 | 0.0 | 0.0 | 0.00 | 0.00 | 0.00 | 14 | 1019.8 |
| 20260503054840 | 37 | 5 | 0.0 | 0.0 | 0.00 | 0.00 | 0.00 | 19 | 1019.8 |
| 20260503054340 | 37 | 5 | 0.0 | 0.0 | 0.00 | 0.00 | 0.00 | 19 | 1019.9 |
| 20260503053841 | 37 | 5 | 0.0 | 0.0 | 0.00 | 0.00 | 0.00 | 20 | 1019.9 |
| 20260503053341 | 37 | 5 | 0.0 | 0.0 | 0.00 | 0.00 | 0.00 | 22 | 1019.9 |
| 20260503052839 | 38 | 5 | 0.0 | 0.0 | 0.00 | 0.00 | 0.00 | 23 | 1019.9 |
| 20260503052338 | 38 | 5 | 0.0 | 0.0 | 0.00 | 0.00 | 0.00 | 24 | 1019.9 |
| 20260503051838 | 38 | 5 | 0.0 | 0.0 | 0.00 | 0.00 | 0.00 | 25 | 1019.9 |
| 20260503051337 | 38 | 5 | 0.0 | 0.0 | 0.00 | 0.00 | 0.00 | 27 | 1020.0 |
| 20260503050837 | 38 | 5 | 0.0 | 0.0 | 0.00 | 0.00 | 0.00 | 29 | 1020.0 |
| 20260503050337 | 38 | 5 | 0.0 | 0.0 | 0.00 | 0.00 | 0.00 | 30 | 1020.0 |
| 20260503045841 | 38 | 5 | 0.0 | 0.0 | 0.00 | 0.00 | 0.00 | 33 | 1020.0 |
| 20260503045837 | 38 | 5 | 0.0 | 0.0 | 0.00 | 0.00 | 0.00 | 32 | 1020.0 |
| 20260503044838 | 38 | 5 | 0.0 | 0.0 | 0.00 | 0.00 | 0.00 | 33 | 1019.9 |
| 20260503044338 | 39 | 5 | 0.0 | 0.0 | 0.00 | 0.00 | 0.00 | 33 | 1019.9 |
| 20260503043842 | 39 | 5 | 0.0 | 0.9 | 0.00 | 0.00 | 0.00 | 37 | 1019.9 |
| 20260503043838 | 39 | 5 | 0.0 | 0.9 | 0.00 | 0.00 | 0.00 | 35 | 1019.9 |
| 20260503042836 | 39 | 5 | 0.0 | 0.0 | 0.00 | 0.00 | 0.00 | 40 | 1020.0 |
| 20260503042336 | 39 | 5 | 0.0 | 0.0 | 0.00 | 0.00 | 0.00 | 45 | 1020.0 |
| 20260503041838 | 39 | 5 | 0.0 | 0.0 | 0.00 | 0.00 | 0.00 | 49 | 1020.0 |
| 20260503041834 | 39 | 5 | 0.0 | 0.0 | 0.00 | 0.00 | 0.00 | 49 | 1020.0 |
| 20260503040834 | 39 | 5 | 0.0 | 0.0 | 0.00 | 0.00 | 0.00 | 50 | 1020.0 |
| 20260503040334 | 39 | 5 | 0.0 | 0.0 | 0.00 | 0.00 | 0.00 | 50 | 1020.0 |
| 20260503035834 | 39 | 5 | 0.0 | 0.0 | 0.00 | 0.00 | 0.00 | 53 | 1020.0 |
| 20260503035334 | 40 | 5 | 0.0 | 0.0 | 0.00 | 0.00 | 0.00 | 54 | 1020.0 |
| 20260503034834 | 40 | 5 | 0.0 | 0.0 | 0.00 | 0.00 | 0.00 | 54 | 1020.0 |
| 20260503034333 | 40 | 5 | 0.0 | 0.0 | 0.00 | 0.00 | 0.00 | 54 | 1019.9 |
| 20260503033833 | 40 | 5 | 0.0 | 0.0 | 0.00 | 0.00 | 0.00 | 53 | 1019.9 |
| 20260503033333 | 40 | 5 | 0.0 | 0.0 | 0.00 | 0.00 | 0.00 | 52 | 1019.9 |
| 20260503032833 | 40 | 5 | 0.0 | 0.0 | 0.00 | 0.00 | 0.00 | 53 | 1019.9 |
| 20260503032333 | 41 | 5 | 0.0 | 0.0 | 0.00 | 0.00 | 0.00 | 54 | 1019.9 |
| 20260503031833 | 41 | 5 | 0.0 | 0.0 | 0.00 | 0.00 | 0.00 | 55 | 1019.9 |
| 20260503031333 | 41 | 5 | 0.0 | 0.0 | 0.00 | 0.00 | 0.00 | 59 | 1019.9 |
| 20260503030833 | 41 | 5 | 0.0 | 0.0 | 0.00 | 0.00 | 0.00 | 62 | 1019.9 |
| 20260503030333 | 41 | 5 | 0.0 | 0.0 | 0.00 | 0.00 | 0.00 | 61 | 1020.0 |
| 20260503025831 | 42 | 5 | 0.0 | 0.0 | 0.00 | 0.00 | 0.00 | 61 | 1020.0 |
| 20260503025331 | 42 | 5 | 0.0 | 0.0 | 0.00 | 0.00 | 0.00 | 62 | 1020.0 |
| 20260503024831 | 42 | 5 | 0.0 | 0.0 | 0.00 | 0.00 | 0.00 | 64 | 1020.0 |
| 20260503024438 | 42 | 5 | 0.0 | 0.0 | 0.00 | 0.00 | 0.00 | 66 | 1020.0 |
| 20260503024335 | 42 | 5 | 0.0 | 0.0 | 0.00 | 0.00 | 0.00 | 66 | 1020.0 |
| 20260503024331 | 42 | 5 | 0.0 | 0.0 | 0.00 | 0.00 | 0.00 | 64 | 1019.9 |
| 20260503023438 | 43 | 5 | 0.0 | 0.0 | 0.00 | 0.00 | 0.00 | 66 | 1019.9 |
| 20260503022331 | 43 | 5 | 0.0 | 0.0 | 0.00 | 0.00 | 0.00 | 66 | 1019.9 |
| 20260503021836 | 44 | 5 | 0.0 | 0.0 | 0.00 | 0.00 | 0.00 | 67 | 1019.7 |
| 20260503021831 | 43 | 5 | 0.0 | 0.0 | 0.00 | 0.00 | 0.00 | 66 | 1019.9 |
| 20260503021332 | 44 | 5 | 0.0 | 0.0 | 0.00 | 0.00 | 0.00 | 67 | 1019.8 |
| 20260503020332 | 44 | 5 | 0.0 | 0.0 | 0.00 | 0.00 | 0.00 | 67 | 1019.7 |
| 20260503015832 | 45 | 5 | 0.0 | 0.0 | 0.00 | 0.00 | 0.00 | 67 | 1019.6 |
| 20260503015337 | 46 | 5 | 0.0 | 0.0 | 0.00 | 0.00 | 0.00 | 65 | 1019.5 |
| 20260503015331 | 45 | 5 | 0.0 | 0.0 | 0.00 | 0.00 | 0.00 | 67 | 1019.6 |
| 20260503014831 | 46 | 5 | 0.0 | 0.0 | 0.00 | 0.00 | 0.00 | 66 | 1019.5 |
| 20260503013833 | 47 | 5 | 0.0 | 0.0 | 0.00 | 0.00 | 0.00 | 63 | 1019.4 |
| 20260503013829 | 47 | 5 | 0.0 | 0.0 | 0.00 | 0.00 | 0.00 | 63 | 1019.4 |
| 20260503013328 | 47 | 5 | 0.0 | 0.0 | 0.00 | 0.00 | 0.00 | 63 | 1019.3 |
| 20260503012331 | 48 | 5 | 0.0 | 0.0 | 0.00 | 0.00 | 0.00 | 59 | 1019.3 |
| 20260503012327 | 48 | 5 | 0.0 | 0.0 | 0.00 | 0.00 | 0.00 | 62 | 1019.3 |
| 20260503011328 | 49 | 5 | 0.0 | 0.0 | 0.00 | 0.00 | 0.00 | 59 | 1019.2 |
| 20260503010828 | 49 | 5 | 0.0 | 0.0 | 0.00 | 0.00 | 0.00 | 57 | 1019.1 |
| 20260503010332 | 50 | 5 | 0.0 | 0.0 | 0.00 | 0.00 | 0.00 | 55 | 1019.1 |
| 20260503010328 | 49 | 5 | 0.0 | 0.0 | 0.00 | 0.00 | 0.00 | 55 | 1019.1 |
| 20260503005327 | 50 | 5 | 0.0 | 0.9 | 0.00 | 0.00 | 0.00 | 55 | 1019.0 |
| 20260503004827 | 51 | 5 | 0.0 | 0.9 | 0.00 | 0.00 | 0.00 | 54 | 1019.1 |
| 20260503004326 | 51 | 0 | 0.0 | 2.6 | 0.00 | 0.00 | 0.00 | 51 | 1019.1 |
| 20260503003826 | 51 | 0 | 0.0 | 2.6 | 0.00 | 0.00 | 0.00 | 52 | 1019.1 |
| 20260503003325 | 51 | 0 | 0.0 | 0.9 | 0.00 | 0.00 | 0.00 | 52 | 1019.1 |
| 20260503002825 | 51 | 0 | 0.9 | 3.5 | 0.00 | 0.00 | 0.00 | 51 | 1019.1 |
| 20260503002325 | 51 | 0 | 1.7 | 6.1 | 0.00 | 0.00 | 0.00 | 50 | 1019.1 |
| 20260503001830 | 52 | 5 | 1.7 | 4.3 | 0.00 | 0.00 | 0.00 | 49 | 1019.1 |
| 20260503001825 | 51 | 355 | 1.7 | 6.1 | 0.00 | 0.00 | 0.00 | 48 | 1019.1 |
| 20260503000831 | 52 | 5 | 0.9 | 4.3 | 0.00 | 0.00 | 0.00 | 47 | 1018.9 |
| 20260503000825 | 52 | 0 | 1.7 | 4.3 | 0.00 | 0.00 | 0.00 | 47 | 1019.1 |
| 20260503000326 | 52 | 337 | 1.7 | 5.2 | 0.00 | 0.00 | 0.00 | 49 | 1019.0 |
| 20260502235825 | 52 | 349 | 1.7 | 5.2 | 0.00 | 0.00 | 0.00 | 48 | 1018.9 |
| 20260502235430 | 52 | 198 | 0.9 | 2.6 | 0.00 | 0.00 | 0.00 | 50 | 1018.9 |
| 20260502234323 | 52 | 242 | 0.9 | 3.5 | 0.00 | 0.00 | 0.00 | 47 | 1018.9 |
| 20260502233821 | 52 | 288 | 0.9 | 3.5 | 0.00 | 0.00 | 0.00 | 46 | 1018.9 |
| 20260502233319 | 52 | 11 | 1.7 | 5.2 | 0.00 | 0.00 | 0.00 | 46 | 1018.9 |
| 20260502232817 | 52 | 11 | 1.7 | 5.2 | 0.00 | 0.00 | 0.00 | 44 | 1018.8 |
| 20260502232318 | 53 | 33 | 0.9 | 4.3 | 0.00 | 0.00 | 0.00 | 47 | 1018.8 |
| 20260502231816 | 53 | 24 | 1.7 | 4.3 | 0.00 | 0.00 | 0.00 | 47 | 1018.9 |
| 20260502231321 | 53 | 5 | 1.7 | 4.3 | 0.00 | 0.00 | 0.00 | 48 | 1018.9 |
| 20260502231317 | 53 | 0 | 2.6 | 8.7 | 0.00 | 0.00 | 0.00 | 47 | 1018.9 |
| 20260502230319 | 53 | 338 | 0.9 | 4.3 | 0.00 | 0.00 | 0.00 | 46 | 1018.8 |
| 20260502230315 | 53 | 5 | 1.7 | 8.7 | 0.00 | 0.00 | 0.00 | 46 | 1018.9 |
| 20260502225936 | 53 | 5 | 1.7 | 4.3 | 0.00 | 0.00 | 0.00 | 46 | 1018.8 |
| 20260502224811 | 53 | 47 | 1.7 | 5.2 | 0.00 | 0.00 | 0.00 | 47 | 1018.8 |
| 20260502224312 | 53 | 355 | 1.7 | 5.2 | 0.00 | 0.00 | 0.00 | 45 | 1018.9 |
| 20260502223811 | 53 | 173 | 0.9 | 3.5 | 0.00 | 0.00 | 0.00 | 48 | 1018.8 |
| 20260502223308 | 53 | 342 | 0.9 | 7.0 | 0.00 | 0.00 | 0.00 | 49 | 1018.9 |
| 20260502222809 | 53 | 342 | 1.7 | 7.0 | 0.00 | 0.00 | 0.00 | 46 | 1018.9 |
| 20260502222309 | 53 | 342 | 2.6 | 7.8 | 0.00 | 0.00 | 0.00 | 44 | 1019.0 |
| 20260502221809 | 54 | 351 | 1.7 | 7.8 | 0.00 | 0.00 | 0.00 | 44 | 1018.9 |
| 20260502221312 | 54 | 69 | 3.5 | 9.6 | 0.00 | 0.00 | 0.00 | 43 | 1018.8 |
| 20260502221308 | 54 | 19 | 2.6 | 7.8 | 0.00 | 0.00 | 0.00 | 46 | 1018.8 |
| 20260502220310 | 54 | 326 | 2.6 | 11.3 | 0.00 | 0.00 | 0.00 | 44 | 1018.8 |
| 20260502215809 | 54 | 51 | 2.6 | 11.3 | 0.00 | 0.00 | 0.00 | 49 | 1018.9 |
| 20260502215308 | 54 | 317 | 2.6 | 9.6 | 0.00 | 0.00 | 0.00 | 46 | 1018.8 |
| 20260502214808 | 54 | 5 | 2.6 | 7.8 | 0.00 | 0.00 | 0.00 | 45 | 1018.8 |
| 20260502214313 | 54 | 0 | 2.6 | 8.7 | 0.00 | 0.00 | 0.00 | 47 | 1018.8 |
| 20260502214309 | 54 | 355 | 3.5 | 8.7 | 0.00 | 0.00 | 0.00 | 43 | 1018.8 |
| 20260502213309 | 54 | 52 | 1.7 | 6.1 | 0.00 | 0.00 | 0.00 | 46 | 1018.8 |
| 20260502212810 | 54 | 269 | 3.5 | 7.8 | 0.00 | 0.00 | 0.00 | 47 | 1018.7 |
| 20260502212309 | 54 | 351 | 3.5 | 10.4 | 0.00 | 0.00 | 0.00 | 43 | 1018.8 |
| 20260502211808 | 55 | 31 | 2.6 | 10.4 | 0.00 | 0.00 | 0.00 | 46 | 1018.7 |
| 20260502211308 | 55 | 355 | 1.7 | 5.2 | 0.00 | 0.00 | 0.00 | 48 | 1018.6 |
| 20260502210812 | 54 | 256 | 1.7 | 7.0 | 0.00 | 0.00 | 0.00 | 46 | 1018.6 |
| 20260502210808 | 54 | 225 | 1.7 | 6.1 | 0.00 | 0.00 | 0.00 | 44 | 1018.6 |
| 20260502210415 | 54 | 325 | 1.7 | 7.0 | 0.00 | 0.00 | 0.00 | 44 | 1018.7 |
| 20260502205309 | 54 | 321 | 2.6 | 7.0 | 0.00 | 0.00 | 0.00 | 48 | 1018.7 |
| 20260502204809 | 55 | 281 | 2.6 | 7.0 | 0.00 | 0.00 | 0.00 | 45 | 1018.7 |
| 20260502204308 | 55 | 44 | 2.6 | 9.6 | 0.00 | 0.00 | 0.00 | 47 | 1018.6 |
| 20260502203809 | 55 | 342 | 3.5 | 9.6 | 0.00 | 0.00 | 0.00 | 41 | 1018.6 |
| 20260502203309 | 56 | 38 | 2.6 | 8.7 | 0.00 | 0.00 | 0.00 | 46 | 1018.7 |
| 20260502202806 | 56 | 0 | 2.6 | 8.7 | 0.00 | 0.00 | 0.00 | 45 | 1018.7 |
| 20260502202306 | 56 | 173 | 3.5 | 7.8 | 0.00 | 0.00 | 0.00 | 45 | 1018.7 |
| 20260502201811 | 56 | 19 | 1.7 | 7.8 | 0.00 | 0.00 | 0.00 | 53 | 1018.8 |
| 20260502201807 | 56 | 29 | 2.6 | 7.8 | 0.00 | 0.00 | 0.00 | 48 | 1018.8 |